PSLV R/B, 44805

Orbit data source: Space-Track

PSLV R/B, 44805 is space debris in SSO originally from a launch on Wed, 27 Nov 2019 UTC launched from the Sirharikota (SRI). Debris objects in space refer to the collection of defunct objects orbiting the Earth. Examples of debris include non-operational satellites, rocket bodies, and fragments generated from explosions, collisions, or faulty payload assembly.

Loading next visibility...
PSLV R/B details
Identifier
44805, 2019-081B
Orbit
SSO
Last TLE update21 hours ago
Origin
Flag of INISRO (IN / IND)
ManufacturerVSSC/LPSC
MissionSpacecraft
Bus & MotorPS-4, Unknown motor
Mass920 kg wet, 920 kg dry
Launch date (UTC)
2019-11-27 (5 years ago)
Launch vehicleUnknown
Launch site
Sirharikota (SRI)
Object type
Payload
Rocket body
Debris
Shape & HBRCyl + Cyl + 2 Nozzle, 3.238 m
Radar Cross Section6.185 m², Large (>1 m²)

Expand to show TLE details & history

TLE from 21 hours ago
0 PSLV R/B
1 44805U 19081B   24360.59817014  .00021649  00000-0  67843-3 0  9993
2 44805  97.2512  34.3573 0029825 258.6674 101.1217 15.32650371281230
Epoch: 2024-12-25T14:21Z
Definitive object data (Epoch: 2024-12-25T14:21:21.9Z)
Latitude0.00001°
Longitude84.42643°
Altitude475.018 km
Speed7.626 km/s
True Right ascension02h 17m 25s
True Declination0° 00' 00"
Sunlit
Object was in full shadow at TLE epoch
Visualization TLE readout
Latitude-22.41855°
Longitude-97.698°
Altitude464.086 km
Speed7.64 km/s
Apparent Right ascension17h 29m 14s
Apparent Declination-54° 38' 45"
Sunlit
Object is in daylight
Visualization observer readout
Local Sidereal Time10:57:54
Azimuth135.085° SSE
Elevation-35.72°
Doppler factor1
Orbital elements
Apogee altitude485.26 km
Perigee altitude444.442 km
Semi-major axis6,842.988 km
Eccentricity0.0029825
Inclination97.2512°
RAAN34.3573°
Arg. of periapsis258.6674°
True anomaly101.45681°
Mean anomaly101.1217°
Eccentric anomaly101.28928°
Mean motion3.8342 °/min
BSTAR0.00067843
Orbital period93.89 mins
Loading maneuver chart data...

PSLV R/B Visibility forecast

Observer location: undefined°, undefined

Span
Click to sort rows by Start time (UTC) header in descending order
Start Az.
Max El. time (UTC)
Max El. Az.
Max El.
End time (UTC)
End Az.
4 mins2024-12-26 14:26:31.771Z56.246° ENE2024-12-26 14:28:31.771Z92.386° ESE15.416°2024-12-26 14:30:31.771Z129.339° SE
4 mins2024-12-26 16:00:31.771Z321.219° NNW2024-12-26 16:01:31.771Z294.083° NW24.127°2024-12-26 16:04:31.771Z231.397° WSW
5 mins2024-12-27 02:32:31.771Z165.822° S2024-12-27 02:34:31.771Z355.902° N43.822°2024-12-27 02:37:31.771Z348.903° N
|